EHI
0 0 0 0 0 0 0 0 0 0 0 0 0 0 0 0 0 0 0 0 0 0 0 0 0 0 0 0 0 0 0 0 0 0 0 0 0 0 0 0 0 0 0
0 0 0 0 0 0 0 0 0 0 0 0 0 0 0 0 0 0 0 0 0 0 0 0 0 0 0 0 0 0 0 0 0 0 0 0 0 0 0 0 0 0 0
0 0 0 0 0 0 0 0 0 0 0 0 0 0 0 0 0 0 0 0 0 0 0 0 0 0 0 0 0 0 0 0 0 0 0 0 0 0 0 0 0 0 0
1 0 0 0 0 0 0 0 0 0 0 0 0 0 0 0 0 0 0 0 0 0 0 0 0 0 0 0 0 0 0 0 0 0 0 0 0 0 0 0 0 0 0
2 1 0 0 0 0 0 0 0 0 0 0 0 0 0 0 0 0 0 0 0 0 0 0 0 0 0 0 0 0 0 0 0 0 0 0 0 0 0 0 0 0 0
3 2 1 0 0 0 0 0 0 0 0 0 0 0 0 0 0 0 0 0 0 0 0 0 0 0 0 0 0 0 0 0 0 0 0 0 0 0 0 0 0 0 0
3 2 1 0 0 0 1 1 0 1 1 0 0 0 0 0 0 0 0 0 0 0 0 0 0 0 0 0 0 0 0 0 0 0 0 0 0 0 0 0 0 0 0
2 1 0 0 1 1 1 1 1 1 2 1 0 0 0 0 0 0 0 0 0 0 0 0 0 0 0 0 0 0 0 0 0 0 0 0 0 0 0 0 0 0 0
2 1 0 0 1 2 2 1 1 1 2 1 0 0 0 0 0 0 0 1 0 0 0 0 0 0 0 0 0 0 0 0 0 0 0 0 0 0 0 0 0 0 0
2 1 0 0 1 2 2 2 1 1 1 1 1 1 1 1 1 1 0 0 0 0 0 0 0 0 0 0 0 0 0 0 0 0 0 0 0 0 0 0 0 0 0
2 1 0 0 0 1 1 2 2 2 2 2 2 2 2 2 2 1 0 0 0 0 0 0 0 0 0 0 0 0 0 0 0 0 0 0 0 0 0 0 0 0 0
2 1 0 0 0 0 0 1 1 1 1 1 1 1 1 1 1 1 0 0 0 0 0 0 0 0 0 0 0 0 0 0 0 0 0 0 0 0 0 0 0 0 0
2 1 0 0 0 0 0 0 0 0 0 0 0 0 0 0 0 0 0 0 0 0 0 0 0 0 0 0 0 0 0 0 0 0 0 0 0 0 0 0 0 0 0
2 1 0 0 0 0 0 0 0 0 0 0 0 0 0 0 0 0 0 0 0 0 0 0 0 0 0 0 0 0 0 0 0 0 0 0 0 0 0 0 0 0 0
1 0 0 0 0 0 0 0 0 0 0 0 0 0 0 0 0 0 0 0 0 0 0 0 0 0 0 0 0 0 0 0 0 0 0 0 0 0 0 0 0 0 0
0 0 0 0 0 0 0 0 0 0 0 0 0 0 0 0 0 0 0 0 0 0 0 0 0 0 0 0 0 0 0 0 0 0 0 0 0 0 0 0 0 0 0
1 0 0 0 0 0 0 0 0 0 0 0 1 1 1 0 0 0 0 0 0 0 0 0 0 0 0 0 0 0 0 0 0 0 0 0 0 0 0 0 0 0 0
2 1 0 0 0 0 0 0 0 0 0 0 1 1 1 0 0 0 0 0 0 0 0 0 0 0 0 0 0 0 0 0 0 0 0 0 0 0 0 0 0 0 0
2 1 0 0 0 0 0 0 0 1 1 0 0 0 0 0 0 1 1 1 1 0 0 0 0 0 0 0 0 0 0 0 0 0 0 0 0 0 0 0 0 0 0
2 1 0 0 0 0 0 1 1 1 1 0 0 0 0 0 1 2 2 2 1 0 0 0 0 0 0 0 0 0 0 0 0 0 0 0 0 0 0 0 0 0 0
1 0 0 0 0 0 1 2 2 1 1 0 0 0 0 0 1 2 3 3 1 0 0 0 0 0 0 0 0 0 0 0 0 0 0 0 0 0 0 0 0 0 0
0 0 0 0 0 0 1 1 1 0 0 1 1 1 0 0 1 2 3 2 1 0 0 0 0 0 0 0 0 0 0 0 0 0 0 0 0 0 0 0 0 0 0
0 1 1 0 0 0 0 0 0 1 1 2 2 2 1 0 1 2 2 1 0 0 0 0 0 0 0 0 0 0 0 0 0 0 0 0 0 0 0 0 0 0 0
1 1 1 0 0 0 0 0 0 1 2 2 2 2 1 0 0 1 1 0 0 0 0 0 0 0 0 0 0 0 0 0 0 0 0 0 0 0 0 0 0 0 0
0 1 1 0 0 0 0 0 0 1 1 1 1 1 1 0 0 0 0 0 0 0 0 0 0 0 0 0 0 0 0 0 0 0 0 0 0 0 0 0 0 0 0
0 0 0 0 0 0 0 0 0 1 1 1 1 1 0 0 0 0 0 0 0 0 0 0 0 0 0 0 0 0 0 0 0 0 0 0 0 0 0 0 0 0 0
Wind_Speed
8 7 6 5 5 4 6 6 5 4 4 2 2 2 2 2 3 3 4 4 4 4 3 3 4 4 3 3 3 3 2 1 2 2 2 3 3 4 3 3 3 4 4
9 8 7 5 5 4 5 6 5 5 4 2 2 2 2 2 2 2 3 3 4 4 3 3 3 3 3 4 4 3 2 2 1 1 2 1 2 3 3 3 3 4 4
11 10 8 6 5 5 5 5 6 6 5 3 2 2 2 1 2 2 2 3 4 4 4 4 3 3 2 2 2 2 2 1 2 2 1 2 1 1 2 3 3 3 3
10 9 8 7 5 5 5 5 5 6 5 4 2 2 2 1 2 2 1 2 3 3 3 3 3 3 3 3 2 2 2 2 2 2 2 2 2 2 1 2 2 3 4
9 9 8 7 6 5 4 4 5 5 5 4 3 1 1 2 2 2 2 2 2 3 3 3 3 3 3 3 3 4 4 2 2 2 1 2 2 1 2 1 1 2 2
9 9 8 6 5 5 4 4 5 4 4 3 3 2 2 2 2 2 1 1 1 2 2 3 3 3 3 3 3 3 3 3 3 3 2 2 1 1 1 2 1 2 1
11 10 9 8 7 6 6 5 5 4 4 3 3 3 3 2 2 1 1 1 1 1 2 2 2 2 2 3 2 2 2 2 3 3 2 2 2 1 1 2 1 1 1
11 11 10 9 8 7 7 6 6 5 4 3 2 2 3 2 1 1 1 1 1 2 2 2 2 2 2 2 2 2 2 2 3 3 3 3 3 2 2 2 2 1 1
11 10 10 9 8 8 7 7 7 5 4 4 2 2 3 2 2 1 1 1 2 2 2 2 2 2 2 2 2 2 2 3 2 2 3 2 2 2 2 2 2 2 1
11 11 10 9 9 8 7 7 7 6 5 4 3 2 2 3 2 1 1 1 2 2 1 2 2 2 2 2 2 2 2 2 1 2 3 2 1 1 2 2 2 2 2
11 10 9 9 9 8 7 7 6 5 5 4 3 3 2 2 2 1 2 1 2 1 1 1 2 2 2 3 2 1 1 2 1 2 3 2 2 2 2 2 2 2 2
10 10 9 9 8 8 8 8 7 6 5 5 4 4 3 3 3 2 2 2 2 2 2 1 2 2 2 2 2 2 1 1 2 2 2 2 1 1 1 1 1 1 1
9 9 9 8 8 8 8 8 7 6 5 5 5 4 4 3 3 3 2 2 2 2 1 2 2 2 1 1 1 1 1 1 1 1 1 1 1 1 1 1 1 1 1
9 9 8 8 8 7 7 7 7 6 6 5 4 4 4 3 3 2 2 2 1 1 1 2 2 2 2 1 1 1 1 1 1 1 1 1 2 1 1 1 1 1 1
9 9 8 8 8 8 7 7 7 7 6 6 5 4 4 3 3 3 2 2 1 1 1 2 2 2 2 1 1 1 0 0 0 1 1 2 3 3 2 2 2 2 1
9 9 9 9 9 9 8 7 7 7 7 6 5 4 4 4 3 3 3 2 2 1 1 2 2 2 1 2 2 2 2 1 0 0 1 2 2 2 2 2 2 2 1
8 9 9 8 8 9 8 8 8 7 7 7 6 5 4 4 4 3 3 3 3 2 1 1 2 2 2 2 1 0 1 1 1 1 0 0 1 2 1 1 1 1 1
7 7 7 8 8 8 8 8 7 7 7 6 6 5 5 4 4 4 3 3 3 2 2 2 2 2 2 3 2 1 1 1 1 1 1 0 1 1 1 1 1 1 1
6 5 6 7 8 8 8 8 8 7 6 6 6 6 5 5 5 4 4 3 3 2 3 2 3 3 3 4 3 2 1 1 1 1 1 1 1 1 2 1 1 1 2
5 5 4 5 6 6 7 8 7 6 6 6 5 5 5 5 5 5 4 3 3 3 3 2 3 3 3 4 5 4 1 2 2 1 1 1 1 1 1 0 1 2 3
5 5 5 4 4 5 7 7 6 6 6 6 5 5 5 5 5 4 3 3 3 3 3 3 3 3 3 5 6 6 2 2 2 1 1 1 2 2 2 2 2 4 4
6 5 5 4 4 4 5 6 5 5 5 5 5 5 5 5 5 4 4 3 3 3 3 2 2 2 3 4 5 7 5 3 1 2 1 1 2 3 4 3 5 6 6
5 5 5 5 4 4 4 5 4 5 6 6 5 5 5 4 4 4 4 3 3 3 2 2 2 2 2 3 5 6 6 5 2 1 1 1 2 3 3 5 6 5 3
5 5 5 5 4 4 4 4 4 4 5 6 5 4 5 4 3 3 3 3 2 2 2 2 2 1 1 1 1 2 2 3 3 2 2 3 4 4 4 4 4 3 3
5 5 5 4 4 4 4 4 4 5 4 5 5 4 4 4 3 2 2 2 2 3 3 2 2 2 2 2 3 3 2 2 2 2 1 1 2 2 3 3 3 2 2
5 5 5 4 4 4 4 3 4 4 4 4 4 3 3 3 3 3 2 2 1 2 3 3 3 1 2 3 3 3 3 2 2 1 1 2 2 3 3 2 2 2 2
Wind_Direction
160 154 151 152 145 133 124 122 127 111 96 71 74 76 63 56 51 51 39 34 34 33 39 42 44 40 37 28 42 51 65 69 88 86 69 48 62 82 64 50 49 52 56
158 151 153 160 152 145 133 136 130 121 115 106 113 111 98 86 78 53 37 34 38 29 35 52 64 59 48 34 38 42 37 18 47 87 113 95 33 34 68 66 57 56 50
165 162 166 163 162 157 150 141 136 131 128 121 86 85 72 75 92 83 48 40 46 29 20 42 58 54 63 59 46 41 55 22 359 48 84 108 125 93 28 71 69 63 57
164 161 166 164 168 156 151 147 143 137 130 124 111 123 124 108 103 115 114 83 63 51 21 34 48 54 55 55 34 45 45 41 8 360 26 75 113 123 109 31 53 66 63
167 166 167 164 166 150 151 142 127 117 119 125 124 104 89 96 92 92 94 87 59 56 41 38 45 53 59 58 51 45 35 38 30 19 18 23 31 52 118 122 93 60 63
169 167 162 156 155 141 136 118 113 106 108 123 135 139 104 96 95 88 97 107 92 63 55 51 52 56 57 54 52 59 52 39 25 26 38 45 48 33 80 114 125 117 101
173 170 167 165 157 149 146 140 135 137 141 159 166 156 137 136 140 140 119 101 105 87 73 65 62 65 71 66 58 61 64 63 49 41 27 30 34 38 61 96 112 109 131
175 173 166 163 159 157 157 157 153 152 158 177 180 153 140 140 123 102 115 100 97 97 94 86 85 67 69 77 57 60 50 65 66 60 50 40 21 27 41 74 97 83 53
170 165 162 161 160 162 162 161 157 160 170 185 170 141 129 120 118 131 107 99 104 107 111 119 115 104 84 82 79 78 67 64 59 66 71 63 31 28 24 38 76 115 105
169 164 163 163 163 165 164 163 163 167 171 177 164 137 131 130 133 146 109 117 111 104 146 141 130 127 114 92 67 70 74 90 79 81 73 62 49 27 36 36 32 62 112
166 162 160 162 161 163 162 161 164 167 164 170 157 143 149 145 149 150 133 130 121 151 156 136 132 126 126 124 114 109 89 102 104 101 99 89 69 45 32 36 44 44 80
161 160 160 159 160 165 167 167 170 169 166 169 157 158 160 159 166 166 165 173 160 166 170 148 119 116 113 120 132 138 117 97 78 68 85 92 90 77 45 39 51 57 86
156 158 158 160 164 168 170 170 170 168 166 165 164 161 157 167 180 170 172 183 164 173 169 133 119 119 109 104 111 124 129 116 103 85 74 68 82 84 73 70 43 28 41
155 157 160 162 164 169 169 169 167 163 160 161 161 161 165 170 173 163 166 179 172 160 147 126 122 114 104 90 80 84 82 92 105 104 93 69 73 65 49 56 18 27 23
159 161 161 163 165 170 171 167 164 163 160 161 166 172 169 161 161 156 162 172 163 151 144 122 113 107 103 66 44 22 59 83 147 147 125 110 102 87 76 64 29 28 26
166 165 167 167 171 174 174 167 164 166 162 164 171 170 164 159 163 158 155 157 147 147 139 135 130 126 104 84 68 38 346 322 287 205 155 144 126 126 116 100 81 70 79
167 168 171 172 173 176 174 168 168 167 165 165 166 165 164 162 158 155 158 163 156 145 137 135 133 138 132 123 114 54 335 320 317 318 292 209 137 133 150 190 213 281 300
163 167 172 171 172 174 169 167 165 166 165 164 165 164 162 161 157 161 169 169 165 170 174 175 172 157 150 151 148 176 264 310 326 313 286 151 96 81 101 141 206 224 255
151 159 170 168 168 169 166 164 165 166 164 164 167 169 166 163 163 169 173 170 175 183 180 186 187 178 177 176 172 164 219 265 283 310 350 54 97 36 56 42 312 296 279
138 145 151 153 158 159 154 157 161 162 164 163 166 164 161 162 167 171 173 170 180 191 182 192 194 189 185 178 175 175 190 237 245 245 230 95 107 94 64 349 301 289 284
131 134 136 131 138 144 147 154 158 167 164 158 157 154 155 161 163 167 172 170 176 183 190 200 200 196 187 180 178 178 194 228 242 240 223 211 189 197 239 259 250 269 290
132 132 127 122 123 130 141 150 157 159 151 148 149 155 157 162 165 164 170 169 172 182 197 204 204 200 189 184 189 192 208 230 238 252 232 220 209 238 254 256 271 286 296
134 133 132 132 132 134 139 144 144 142 145 146 151 156 154 152 151 156 164 169 174 178 193 200 208 206 192 183 189 197 216 236 242 242 229 273 273 266 258 260 272 278 270
135 136 137 139 137 134 133 137 137 138 141 148 152 152 152 151 151 149 156 159 169 180 190 195 201 200 154 139 164 192 210 222 238 245 253 266 265 263 262 266 263 249 244
131 138 140 138 140 136 130 130 137 146 153 152 151 153 151 150 145 129 129 158 168 178 182 195 190 181 186 205 173 166 186 199 216 225 225 234 245 250 256 253 251 247 257
134 131 126 129 134 130 126 125 136 152 156 156 156 155 150 147 144 139 117 73 116 135 158 166 166 164 182 180 173 186 200 213 219 192 224 240 244 247 251 257 265 258 252